Weather History for Mineral Wells, TX

Change the Weather History Date:

Saturday, November 10, 2012

  Actual Average Record
Temperature  
Mean Temperature 72 °F -  
Max Temperature 81 °F 64 °F 82 °F (1999)
Min Temperature 64 °F 46 °F 34 °F (2011)
Cooling Degree Days 8    
Growing Degree Days 22 (Base 50)    
Moisture  
Dew Point 58 °F    
Average Humidity 65    
Maximum Humidity 83    
Minimum Humidity 39    
Precipitation  
Precipitation 0.00 in - - ()
Sea Level Pressure  
Sea Level Pressure 29.86 in    
Wind  
Wind Speed 17 mph (SSE)    
Max Wind Speed 28 mph    
Max Gust Speed 38 mph    
Visibility 10 miles    
Events      
Averages and records for this station are not official NWS values.
T = Trace of Precipitation, MM = Missing Value Source: NWS Daily Summary

Daily Weather History Graph

Daily Weather History Graph

Search for Another Location

Airport:

Trip Planner

Search our weather history database for the weather conditions in past years. The results will help you decide how hot, cold, wet, or windy it might be!

Date:

Astronomy

Nov. 10, 2012 Rise Set
Actual Time 6:58 AM CST 5:33 PM CST
Civil Twilight 6:32 AM CST 5:59 PM CST
Nautical Twilight 6:02 AM CST 6:29 PM CST
Astronomical Twilight 5:33 AM CST 6:58 PM CST
Moon 3:15 AM CST (11/10) 3:12 PM CST (11/10)
Length of Visible Light 11h 27m
Length of Day
10h 35m
Waning Crescent, 14% of the Moon is Illuminated
Nov 10
Waning Crescent
Nov 13
New
Nov 20
First Quarter
Nov 28
Full
Dec 6
Last Quarter

Hourly Weather History & Observations

Time (CST) Temp. Heat Index Dew Point Humidity Pressure Visibility Wind Dir Wind Speed Gust Speed Precip Events Conditions
12:53 AM 68.0 °F - 57.0 °F 68% 29.90 in 10.0 mi SSE 16.1 mph 23.0 mph N/A   Clear
1:53 AM 66.0 °F - 57.9 °F 75% 29.90 in 10.0 mi SSE 12.7 mph - N/A   Clear
2:53 AM 64.9 °F - 59.0 °F 81% 29.89 in 10.0 mi SSE 13.8 mph - N/A   Scattered Clouds
3:09 AM 64.4 °F - 59.0 °F 83% 29.93 in 10.0 mi SSE 13.8 mph 23.0 mph N/A   Mostly Cloudy
3:53 AM 66.2 °F - 59.0 °F 78% 29.92 in 10.0 mi South 18.4 mph 25.3 mph N/A   Mostly Cloudy
4:15 AM 64.4 °F - 59.0 °F 83% 29.91 in 10.0 mi SSE 16.1 mph 26.5 mph N/A   Partly Cloudy
4:53 AM 64.9 °F - 59.0 °F 81% 29.88 in 10.0 mi SSE 15.0 mph - N/A   Clear
5:33 AM 64.4 °F - 59.0 °F 83% 29.92 in 10.0 mi SSE 11.5 mph - N/A   Mostly Cloudy
5:53 AM 64.9 °F - 59.0 °F 81% 29.89 in 10.0 mi SSE 9.2 mph - N/A   Mostly Cloudy
6:53 AM 64.9 °F - 59.0 °F 81% 29.88 in 10.0 mi SSE 15.0 mph 23.0 mph N/A   Mostly Cloudy
7:01 AM 64.4 °F - 59.0 °F 83% 29.92 in 10.0 mi SSE 13.8 mph 20.7 mph N/A   Scattered Clouds
7:49 AM 66.2 °F - 59.0 °F 78% 29.93 in 10.0 mi SSE 15.0 mph 21.9 mph N/A   Mostly Cloudy
7:53 AM 66.9 °F - 59.0 °F 76% 29.90 in 10.0 mi SSE 15.0 mph - N/A   Mostly Cloudy
8:53 AM 69.1 °F - 57.9 °F 68% 29.91 in 10.0 mi South 21.9 mph 29.9 mph N/A   Overcast
9:04 AM 69.8 °F - 57.2 °F 64% 29.94 in 10.0 mi South 21.9 mph 32.2 mph N/A   Overcast
9:53 AM 71.1 °F - 59.0 °F 66% 29.91 in 10.0 mi South 18.4 mph 26.5 mph N/A   Overcast
10:12 AM 71.6 °F - 59.0 °F 64% 29.94 in 10.0 mi South 18.4 mph 26.5 mph N/A   Overcast
10:20 AM 71.6 °F - 59.0 °F 64% 29.93 in 10.0 mi South 17.3 mph 25.3 mph N/A   Overcast
10:53 AM 72.0 °F - 59.0 °F 64% 29.89 in 10.0 mi South 23.0 mph 33.4 mph N/A   Overcast
11:53 AM 75.9 °F - 57.9 °F 54% 29.86 in 10.0 mi South 27.6 mph 34.5 mph N/A   Partly Cloudy
12:53 PM 79.0 °F - 57.0 °F 47% 29.82 in 10.0 mi South 26.5 mph 33.4 mph N/A   Clear
1:53 PM 80.1 °F 80.4 °F 57.0 °F 45% 29.79 in 10.0 mi South 24.2 mph 36.8 mph N/A   Clear
2:53 PM 81.0 °F 80.7 °F 55.0 °F 41% 29.75 in 10.0 mi South 24.2 mph 38.0 mph N/A   Clear
3:53 PM 81.0 °F 80.5 °F 54.0 °F 39% 29.74 in 10.0 mi South 24.2 mph 35.7 mph N/A   Clear
4:53 PM 78.1 °F - 53.1 °F 42% 29.75 in 10.0 mi South 15.0 mph 29.9 mph N/A   Clear
5:53 PM 75.9 °F - 54.0 °F 46% 29.75 in 10.0 mi SSE 16.1 mph 29.9 mph N/A   Clear
6:53 PM 75.9 °F - 55.0 °F 48% 29.77 in 10.0 mi South 18.4 mph 29.9 mph N/A   Clear
7:53 PM 73.9 °F - 57.0 °F 55% 29.76 in 10.0 mi SSE 16.1 mph 31.1 mph N/A   Clear
8:53 PM 73.0 °F - 57.9 °F 59% 29.78 in 10.0 mi SSE 18.4 mph 29.9 mph N/A   Clear
9:53 PM 71.6 °F - 57.2 °F 60% 29.82 in 10.0 mi South 21.9 mph 29.9 mph N/A   Clear
10:53 PM 71.1 °F - 59.0 °F 66% 29.78 in 10.0 mi South 20.7 mph 28.8 mph N/A   Scattered Clouds
11:53 PM 71.1 °F - 59.0 °F 66% 29.75 in 10.0 mi South 19.6 mph 35.7 mph N/A   Scattered Clouds